• în Republica Moldova
  • Lista ţărilor
  • Pe 7 zile
  • Temperatura apei
  • Hartă satelitară
  • Meteo pe hartă
  • Widget-uri
  • user-avatar
    Intrare

    Meteo pe oră la Linz

    Astăzi, 22 Februarie, Joi

    Timp Temperatura Precipitaţii Vânt Presiune Umiditate
    00:00 -5°C° 0 mm 3 m/s 734 mmHg 88%
    01:00 -6°C° 0 mm 3 m/s 733 mmHg 87%
    02:00 -6°C° 0 mm 3 m/s 733 mmHg 87%
    03:00 -6°C° 0 mm 3 m/s 733 mmHg 86%
    04:00 -6°C° 0 mm 3 m/s 733 mmHg 86%
    05:00 -6°C° 0 mm 3 m/s 733 mmHg 85%
    06:00 -6°C° 0 mm 3 m/s 733 mmHg 85%
    07:00 -6°C° 0 mm 3 m/s 732 mmHg 85%
    08:00 -5°C° 0,1 mm 4 m/s 732 mmHg 84%
    09:00 -5°C° 0,1 mm 4 m/s 732 mmHg 82%
    10:00 -4°C° 0,1 mm 4 m/s 732 mmHg 81%
    11:00 -3°C° 0,1 mm 4 m/s 732 mmHg 80%
    12:00 -3°C° 0,1 mm 4 m/s 732 mmHg 79%
    13:00 -2°C° 0,1 mm 4 m/s 732 mmHg 78%
    14:00 -2°C° 0,1 mm 4 m/s 732 mmHg 78%
    15:00 -2°C° 0,1 mm 4 m/s 732 mmHg 79%
    16:00 -2°C° 0,1 mm 4 m/s 732 mmHg 79%
    17:00 -3°C° 0 mm 4 m/s 732 mmHg 81%
    18:00 -3°C° 0 mm 4 m/s 732 mmHg 83%
    19:00 -4°C° 0 mm 4 m/s 732 mmHg 85%
    20:00 -4°C° 0 mm 4 m/s 732 mmHg 86%
    21:00 -5°C° 0 mm 3 m/s 732 mmHg 87%
    22:00 -5°C° 0 mm 3 m/s 733 mmHg 87%
    23:00 -5°C° 0 mm 3 m/s 733 mmHg 87%

    Mâine, 23 Februarie, Vineri

    Timp Temperatura Precipitaţii Vânt Presiune Umiditate
    00:00 -5°C° 0 mm 3 m/s 733 mmHg 88%
    01:00 -5°C° 0 mm 3 m/s 733 mmHg 88%
    02:00 -5°C° 0 mm 3 m/s 732 mmHg 88%
    03:00 -5°C° 0 mm 3 m/s 732 mmHg 88%
    04:00 -5°C° 0 mm 3 m/s 732 mmHg 88%
    05:00 -5°C° 0 mm 3 m/s 732 mmHg 88%
    06:00 -5°C° 0 mm 3 m/s 732 mmHg 89%
    07:00 -5°C° 0 mm 3 m/s 732 mmHg 89%
    08:00 -4°C° 0 mm 3 m/s 732 mmHg 86%
    09:00 -3°C° 0 mm 4 m/s 733 mmHg 83%
    10:00 -1°C° 0 mm 4 m/s 733 mmHg 80%
    11:00 -1°C° 0 mm 4 m/s 733 mmHg 79%
    12:00 0°C° 0 mm 5 m/s 732 mmHg 78%
    13:00 +1°C° 0 mm 5 m/s 732 mmHg 77%
    14:00 +1°C° 0 mm 5 m/s 732 mmHg 78%
    15:00 +1°C° 0 mm 5 m/s 732 mmHg 79%
    16:00 0°C° 0 mm 5 m/s 732 mmHg 80%
    17:00 -1°C° 0 mm 5 m/s 732 mmHg 82%
    18:00 -2°C° 0 mm 4 m/s 733 mmHg 84%
    19:00 -3°C° 0 mm 4 m/s 733 mmHg 86%
    20:00 -3°C° 0 mm 4 m/s 733 mmHg 86%
    21:00 -3°C° 0 mm 4 m/s 733 mmHg 86%
    22:00 -4°C° 0 mm 4 m/s 733 mmHg 86%
    23:00 -4°C° 0 mm 4 m/s 733 mmHg 87%

    Poimâine, 24 Februarie, Sâmbătă

    Timp Temperatura Precipitaţii Vânt Presiune Umiditate
    00:00 -4°C° 0 mm 3 m/s 733 mmHg 87%
    01:00 -4°C° 0 mm 3 m/s 733 mmHg 87%
    02:00 -4°C° 0 mm 3 m/s 733 mmHg 87%
    03:00 -4°C° 0 mm 3 m/s 733 mmHg 86%
    04:00 -5°C° 0 mm 3 m/s 733 mmHg 86%
    05:00 -5°C° 0 mm 4 m/s 733 mmHg 86%
    06:00 -5°C° 0 mm 4 m/s 734 mmHg 85%
    07:00 -5°C° 0 mm 4 m/s 734 mmHg 85%
    08:00 -4°C° 0 mm 4 m/s 734 mmHg 82%
    09:00 -3°C° 0 mm 4 m/s 734 mmHg 78%
    10:00 -2°C° 0 mm 4 m/s 734 mmHg 75%
    11:00 -1°C° 0 mm 5 m/s 734 mmHg 71%
    12:00 -1°C° 0 mm 5 m/s 734 mmHg 68%
    13:00 0°C° 0 mm 5 m/s 734 mmHg 64%
    14:00 0°C° 0 mm 5 m/s 734 mmHg 64%
    15:00 -1°C° 0 mm 5 m/s 734 mmHg 63%
    16:00 -1°C° 0 mm 5 m/s 734 mmHg 63%
    17:00 -2°C° 0 mm 5 m/s 734 mmHg 66%
    18:00 -3°C° 0 mm 4 m/s 734 mmHg 70%
    19:00 -5°C° 0 mm 4 m/s 735 mmHg 73%
    20:00 -5°C° 0 mm 4 m/s 735 mmHg 70%
    21:00 -7°C° 0 mm 5 m/s 736 mmHg 68%
    22:00 -7°C° 0 mm 5 m/s 736 mmHg 65%
    23:00 -8°C° 0 mm 5 m/s 736 mmHg 65%

    25 Februarie, Duminică

    Timp Temperatura Precipitaţii Vânt Presiune Umiditate
    00:00 -8°C° 0 mm 4 m/s 736 mmHg 65%
    01:00 -9°C° 0 mm 4 m/s 736 mmHg 65%
    02:00 -9°C° 0 mm 4 m/s 736 mmHg 67%
    03:00 -10°C° 0 mm 4 m/s 736 mmHg 68%
    04:00 -11°C° 0 mm 5 m/s 736 mmHg 69%
    05:00 -11°C° 0 mm 5 m/s 736 mmHg 70%
    06:00 -11°C° 0 mm 5 m/s 736 mmHg 71%
    07:00 -12°C° 0 mm 5 m/s 737 mmHg 72%
    08:00 -11°C° 0 mm 5 m/s 737 mmHg 68%
    09:00 -10°C° 0 mm 5 m/s 737 mmHg 65%
    10:00 -10°C° 0 mm 5 m/s 737 mmHg 61%
    11:00 -8°C° 0 mm 5 m/s 737 mmHg 59%
    12:00 -7°C° 0 mm 5 m/s 736 mmHg 57%
    13:00 -6°C° 0 mm 5 m/s 736 mmHg 54%
    14:00 -6°C° 0 mm 5 m/s 736 mmHg 55%
    15:00 -6°C° 0 mm 5 m/s 736 mmHg 56%
    16:00 -6°C° 0 mm 5 m/s 736 mmHg 56%
    17:00 -7°C° 0 mm 5 m/s 736 mmHg 57%
    18:00 -8°C° 0 mm 5 m/s 736 mmHg 59%
    19:00 -10°C° 0 mm 5 m/s 737 mmHg 60%
    20:00 -10°C° 0 mm 5 m/s 737 mmHg 62%
    21:00 -11°C° 0 mm 5 m/s 737 mmHg 64%
    22:00 -10°C° 0 mm 4 m/s 737 mmHg 65%
    23:00 -11°C° 0 mm 4 m/s 737 mmHg 67%

    26 Februarie, Luni

    Timp Temperatura Precipitaţii Vânt Presiune Umiditate
    00:00 -11°C° 0 mm 4 m/s 737 mmHg 68%
    01:00 -12°C° 0 mm 4 m/s 737 mmHg 70%
    02:00 -12°C° 0 mm 3 m/s 737 mmHg 71%
    03:00 -12°C° 0 mm 3 m/s 737 mmHg 72%
    04:00 -12°C° 0 mm 3 m/s 736 mmHg 72%
    05:00 -13°C° 0 mm 3 m/s 736 mmHg 73%
    06:00 -13°C° 0 mm 3 m/s 736 mmHg 74%
    07:00 -13°C° 0 mm 3 m/s 737 mmHg 74%
    08:00 -12°C° 0 mm 3 m/s 736 mmHg 70%
    09:00 -10°C° 0 mm 3 m/s 736 mmHg 65%
    10:00 -10°C° 0 mm 3 m/s 736 mmHg 61%
    11:00 -9°C° 0 mm 3 m/s 736 mmHg 57%
    12:00 -8°C° 0 mm 3 m/s 735 mmHg 54%
    13:00 -7°C° 0 mm 3 m/s 735 mmHg 50%
    14:00 -7°C° 0 mm 3 m/s 735 mmHg 51%
    15:00 -7°C° 0 mm 3 m/s 734 mmHg 51%
    16:00 -7°C° 0 mm 3 m/s 734 mmHg 52%
    17:00 -8°C° 0 mm 3 m/s 734 mmHg 55%
    18:00 -8°C° 0 mm 3 m/s 734 mmHg 58%
    19:00 -8°C° 0 mm 2 m/s 734 mmHg 61%
    20:00 -8°C° 0 mm 2 m/s 734 mmHg 62%
    21:00 -9°C° 0 mm 2 m/s 734 mmHg 63%
    22:00 -9°C° 0 mm 2 m/s 734 mmHg 63%
    23:00 -9°C° 0 mm 2 m/s 734 mmHg 64%

    27 Februarie, Marţi

    Timp Temperatura Precipitaţii Vânt Presiune Umiditate
    00:00 -9°C° 0 mm 2 m/s 733 mmHg 65%
    01:00 -10°C° 0 mm 2 m/s 733 mmHg 66%
    02:00 -10°C° 0 mm 2 m/s 733 mmHg 67%
    03:00 -10°C° 0 mm 2 m/s 732 mmHg 67%
    04:00 -10°C° 0 mm 2 m/s 732 mmHg 68%
    05:00 -10°C° 0 mm 2 m/s 732 mmHg 69%
    06:00 -12°C° 0 mm 2 m/s 732 mmHg 69%
    07:00 -12°C° 0 mm 2 m/s 731 mmHg 69%
    08:00 -10°C° 0 mm 2 m/s 731 mmHg 66%
    09:00 -9°C° 0 mm 2 m/s 731 mmHg 62%
    10:00 -9°C° 0 mm 2 m/s 731 mmHg 59%
    11:00 -8°C° 0 mm 2 m/s 731 mmHg 56%
    12:00 -7°C° 0 mm 2 m/s 730 mmHg 53%
    13:00 -7°C° 0 mm 2 m/s 730 mmHg 50%
    14:00 -7°C° 0 mm 2 m/s 730 mmHg 50%
    15:00 -7°C° 0 mm 2 m/s 730 mmHg 50%
    16:00 -7°C° 0 mm 2 m/s 729 mmHg 50%
    17:00 -7°C° 0 mm 2 m/s 730 mmHg 53%
    18:00 -8°C° 0 mm 2 m/s 730 mmHg 56%
    19:00 -7°C° 0 mm 1 m/s 731 mmHg 59%
    20:00 -7°C° 0 mm 1 m/s 731 mmHg 60%
    21:00 -8°C° 0 mm 1 m/s 731 mmHg 61%
    22:00 -8°C° 0 mm 1 m/s 731 mmHg 62%
    23:00 -8°C° 0 mm 1 m/s 731 mmHg 63%
    Arată mai mult